Voltar ao catálogo

KUIPER-00192

AtivoComunicaçõesLEO
NORAD 68575·PAYLOAD·🇺🇸 United States

Lançado Apr 4, 2026 de Cape Canaveral Space Force Station

Loading…

Próximas Passagens (próximas 24 horas)

TLE

AtualizadoSource: CelesTrak SupGP

Época: Sep 14, 2026, 18:55 UTC

1 68575C 26072C   26257.78865741  .00000195  00000+0  25578-4 0  2578
2 68575  51.8985 156.9306 0001071  91.0725 357.9030 14.79934851    11

Acompanhe KUIPER-00192 em tempo real com AllMySat

Download on the App Store